Location: Pcim
(49.7500°N, 19.9670°E)
Time: 20:04:00
(UTC+02:00)

MOZHAYETS 4 - Pass Details

Date: 03 May 2024
Orbit: 652 x 670 km, 98.3° (Epoch: 20 May)

Event Time Altitude Azimuth Distance (km) Brightness Sun altitude
Rises 02:10:07 0° 111° (ESE) 3,014 11.1 -21.3°
Reaches altitude 10° 02:13:17 10° 87° (E) 2,103 10.6 -21.1°
Maximum altitude 02:15:42 14° 55° (NE) 1,827 10.7 -21.0°
Drops below altitude 10° 02:18:07 10° 23° (NNE) 2,107 11.5 -20.8°
Sets 02:21:17 0° 360° (N) 3,022 12.2 -20.6°
